Mercury, NV

7:19 PM PDT on April 28, 2017 (GMT -0700)
Mercury

Weather History for KDRA - February, 2013

Change the Weather History Date:

Monday, February 4, 2013

  Actual Average Record
Temperature  
Mean Temperature 52 °F 46 °F  
Max Temperature 66 °F 57 °F 75 °F (1995)
Min Temperature 37 °F 34 °F 15 °F (1979)
Degree Days  
Heating Degree Days 14    
Cooling Degree Days 0    
Growing Degree Days 2 (Base 50)    
Moisture  
Dew Point 20 °F    
Average Humidity 28    
Maximum Humidity 49    
Minimum Humidity 6    
Precipitation  
Precipitation 0.00 in 0.03 in 0.23 in (1994)
Month to date precipitation 0.10  
Year to date precipitation 0.84  
Sea Level Pressure  
Sea Level Pressure 30.03 in    
Wind  
Wind Speed 8 mph (East)    
Max Wind Speed 15 mph    
Max Gust Speed 20 mph    
Visibility 10 miles    
Events      
T = Trace of Precipitation, MM = Missing Value Source: NWS Daily Summary

Daily Weather History Graph

Daily Weather History Graph

Search for Another Location

Airport or City:

Trip Planner

Search our weather history database for the weather conditions in past years. The results will help you decide how hot, cold, wet, or windy it might be!

Date:

Astronomy

Feb. 04, 2013 Rise Set
Actual Time 6:43 AM PST 5:13 PM PST
Civil Twilight 6:16 AM PST 5:40 PM PST
Nautical Twilight 5:45 AM PST 6:11 PM PST
Astronomical Twilight 5:15 AM PST 6:41 PM PST
Moon 1:21 AM PST (2/4) 11:43 AM PST (2/4)
Length of Visible Light 11h 24m
Length of Day
10h 30m
Last Quarter, 36% of the Moon is Illuminated
Feb 4
Last Quarter
Feb 9
New
Feb 17
First Quarter
Feb 25
Full
Mar 4
Last Quarter

Hourly Weather History & Observations

Time (PST) Temp. Windchill Dew Point Humidity Pressure Visibility Wind Dir Wind Speed Gust Speed Precip Events Conditions
12:52 AM 48.0 °F - 24.1 °F 39% 30.05 in 10.0 mi ENE 8.1 mph - N/A   Clear
2:52 AM 48.2 °F - 23.0 °F 37% 30.10 in 10.0 mi NNE 15.0 mph - N/A   Clear
3:52 AM 50.0 °F - 21.0 °F 32% 30.03 in 10.0 mi NE 15.0 mph - N/A   Clear
4:52 AM 44.1 °F 42.5 °F 25.0 °F 47% 30.05 in 10.0 mi East 3.5 mph - N/A   Clear
6:52 AM 41.0 °F 39.0 °F 23.0 °F 49% 30.10 in 10.0 mi Variable 3.5 mph - N/A   Clear
7:52 AM 48.0 °F - 23.0 °F 37% 30.10 in 10.0 mi Variable 4.6 mph - N/A   Clear
8:52 AM 54.0 °F - 19.9 °F 26% 30.09 in 10.0 mi NE 12.7 mph 19.6 mph N/A   Clear
9:52 AM 57.0 °F - 21.0 °F 25% 30.10 in 10.0 mi NE 15.0 mph - N/A   Clear
10:52 AM 59.0 °F - 19.0 °F 21% 30.08 in 10.0 mi ESE 5.8 mph - N/A   Clear
11:52 AM 63.0 °F - 19.9 °F 19% 30.04 in 10.0 mi ESE 4.6 mph - N/A   Clear
12:52 PM 64.0 °F - 18.0 °F 17% 30.01 in 10.0 mi Variable 3.5 mph - N/A   Clear
1:52 PM 64.9 °F - 12.9 °F 13% 29.99 in 10.0 mi Calm Calm - N/A   Clear
2:52 PM 66.9 °F - 16.0 °F 14% 29.97 in 10.0 mi SW 5.8 mph - N/A   Clear
3:52 PM 66.0 °F - 15.1 °F 14% 29.97 in 10.0 mi SSW 4.6 mph - N/A   Clear
4:52 PM 63.0 °F - 17.1 °F 17% 29.98 in 10.0 mi WSW 4.6 mph - N/A   Clear
5:52 PM 55.9 °F - 19.9 °F 25% 30.00 in 10.0 mi East 4.6 mph - N/A   Clear
6:52 PM 50.0 °F - 21.0 °F 32% 30.01 in 10.0 mi East 4.6 mph - N/A   Clear
7:52 PM 46.9 °F - 19.9 °F 34% 30.02 in 10.0 mi East 4.6 mph - N/A   Clear
8:52 PM 46.0 °F 43.9 °F 21.0 °F 37% 30.01 in 10.0 mi NE 4.6 mph - N/A   Clear
9:52 PM 42.1 °F 37.7 °F 21.0 °F 43% 30.01 in 10.0 mi East 6.9 mph - N/A   Clear
10:52 PM 43.0 °F 38.8 °F 19.9 °F 40% 30.01 in 10.0 mi ENE 6.9 mph - N/A   Clear
11:52 PM 42.1 °F 40.2 °F 19.9 °F 41% 30.01 in 10.0 mi ESE 3.5 mph - N/A   Clear